Location: Arthez
(43.0833°N, 0.2500°W)
Time: 21:46:03
(UTC+00:00)

deb Kosmos-970 - Pass Details

Date: 22 August 2022
Orbit: 900 x 1112 km, 65.8° (Epoch: 28 September)

Event Time Altitude Azimuth Distance (km) Brightness Sun altitude
Rises 00:36:15 0° 320° (NW) 3,928 ? -34.6°
Reaches altitude 10° 00:39:13 10° 311° (NW) 2,950 ? -34.5°
Enters shadow 00:42:30 25° 290° (WNW) 2,049 ? -34.4°
